TimeAKST,TemperatureF,Dew PointF,Humidity,Sea Level PressureIn,VisibilityMPH,Wind Direction,Wind SpeedMPH,Gust SpeedMPH,PrecipitationIn,Events,Conditions,WindDirDegrees,DateUTC
12:16 AM,26.6,26.6,100,29.39,10.0,ESE,8.1,-,N/A,,Scattered Clouds,110,2012-12-25 09:16:00
12:36 AM,28.4,28.4,100,29.39,10.0,East,6.9,-,N/A,,Scattered Clouds,100,2012-12-25 09:36:00
12:56 AM,28.4,26.6,93,29.39,10.0,East,5.8,-,N/A,,Clear,90,2012-12-25 09:56:00
1:16 AM,30.2,30.2,100,29.40,10.0,East,6.9,-,N/A,,Mostly Cloudy,80,2012-12-25 10:16:00
1:36 AM,30.2,28.4,93,29.40,10.0,East,5.8,-,N/A,,Overcast,90,2012-12-25 10:36:00
1:56 AM,32.0,32.0,100,29.40,10.0,East,8.1,-,N/A,,Mostly Cloudy,90,2012-12-25 10:56:00
2:16 AM,33.8,33.8,100,29.40,10.0,East,12.7,-,N/A,,Overcast,90,2012-12-25 11:16:00
2:36 AM,33.8,33.8,100,29.41,10.0,East,12.7,-,N/A,,Overcast,100,2012-12-25 11:36:00
2:56 AM,33.8,33.8,100,29.42,10.0,SW,5.8,-,N/A,,Overcast,220,2012-12-25 11:56:00
3:16 AM,30.2,28.4,93,29.42,4.0,WSW,3.5,-,N/A,,Overcast,250,2012-12-25 12:16:00
3:36 AM,30.2,30.2,100,29.42,1.0,WSW,9.2,-,0.01,,Overcast,240,2012-12-25 12:36:00
3:56 AM,30.2,30.2,100,29.43,0.8,Calm,Calm,-,0.02,,Overcast,0,2012-12-25 12:56:00
4:16 AM,30.2,30.2,100,29.43,0.8,South,3.5,-,0.03,,Overcast,190,2012-12-25 13:16:00
4:36 AM,30.2,30.2,100,29.44,0.8,South,3.5,-,0.05,,Overcast,170,2012-12-25 13:36:00
4:56 AM,30.2,28.4,93,29.44,0.8,Calm,Calm,-,0.07,,Overcast,0,2012-12-25 13:56:00
5:16 AM,30.2,28.4,93,29.44,0.8,Calm,Calm,-,0.03,,Overcast,0,2012-12-25 14:16:00
5:36 AM,30.2,30.2,100,29.45,0.8,Calm,Calm,-,0.05,,Overcast,0,2012-12-25 14:36:00
5:56 AM,30.2,28.4,93,29.46,0.8,Calm,Calm,-,0.07,,Overcast,0,2012-12-25 14:56:00
6:16 AM,28.4,28.4,100,29.46,0.8,Calm,Calm,-,0.02,,Unknown,0,2012-12-25 15:16:00
6:36 AM,28.4,28.4,100,29.47,0.8,Calm,Calm,-,0.04,,Mostly Cloudy,0,2012-12-25 15:36:00
6:56 AM,28.4,26.6,93,29.48,0.5,Calm,Calm,-,0.06,,Overcast,0,2012-12-25 15:56:00
7:16 AM,28.4,28.4,100,29.48,0.8,SSW,4.6,-,0.02,,Overcast,210,2012-12-25 16:16:00
7:36 AM,28.4,28.4,100,29.49,0.8,SW,6.9,-,0.03,,Overcast,230,2012-12-25 16:36:00
7:56 AM,28.4,26.6,93,29.49,0.8,SW,10.4,-,0.03,,Overcast,230,2012-12-25 16:56:00
8:16 AM,28.4,26.6,93,29.49,1.0,SSW,10.4,-,0.01,,Overcast,210,2012-12-25 17:16:00
8:36 AM,28.4,26.6,93,29.50,0.8,SW,8.1,16.1,0.01,,Overcast,220,2012-12-25 17:36:00
8:56 AM,26.6,26.6,100,29.50,1.0,SW,8.1,-,0.02,,Overcast,230,2012-12-25 17:56:00
9:16 AM,26.6,24.8,93,29.50,1.0,South,3.5,-,0.01,,Overcast,180,2012-12-25 18:16:00
9:36 AM,28.4,26.6,93,29.51,0.8,Calm,Calm,-,0.02,,Overcast,0,2012-12-25 18:36:00
9:56 AM,28.4,26.6,93,29.52,0.8,Calm,Calm,-,0.03,,Overcast,0,2012-12-25 18:56:00
10:16 AM,26.6,26.6,100,29.53,0.2,SSW,3.5,-,0.02,,Overcast,200,2012-12-25 19:16:00
10:36 AM,26.6,26.6,100,29.54,0.5,SSW,3.5,-,0.03,,Overcast,200,2012-12-25 19:36:00
10:56 AM,26.6,26.6,100,29.54,0.5,South,3.5,-,0.04,,Overcast,180,2012-12-25 19:56:00
11:16 AM,28.4,26.6,93,29.55,0.5,South,3.5,-,0.01,,Overcast,170,2012-12-25 20:16:00
11:36 AM,28.4,26.6,93,29.55,1.0,South,4.6,-,0.01,,Overcast,170,2012-12-25 20:36:00
11:56 AM,28.4,26.6,93,29.55,1.2,SSE,3.5,-,0.01,,Overcast,150,2012-12-25 20:56:00
12:16 PM,28.4,26.6,93,29.56,1.8,South,3.5,-,N/A,,Overcast,180,2012-12-25 21:16:00
12:36 PM,28.4,26.6,93,29.56,1.5,South,3.5,-,0.01,,Overcast,180,2012-12-25 21:36:00
12:56 PM,28.4,26.6,93,29.57,2.0,Calm,Calm,-,0.01,,Overcast,0,2012-12-25 21:56:00
1:16 PM,28.4,26.6,93,29.57,1.2,Calm,Calm,-,N/A,,Overcast,0,2012-12-25 22:16:00
1:36 PM,28.4,26.6,93,29.58,2.0,Calm,Calm,-,0.01,,Overcast,0,2012-12-25 22:36:00
1:56 PM,28.4,26.6,93,29.58,2.5,Calm,Calm,-,0.01,,Overcast,0,2012-12-25 22:56:00
2:16 PM,28.4,24.8,86,29.59,2.0,Calm,Calm,-,N/A,,Overcast,0,2012-12-25 23:16:00
2:36 PM,28.4,26.6,93,29.59,2.0,WSW,3.5,-,N/A,,Overcast,240,2012-12-25 23:36:00
2:56 PM,28.4,24.8,86,29.59,2.5,SW,3.5,-,N/A,,Overcast,220,2012-12-25 23:56:00
3:16 PM,26.6,24.8,93,29.60,2.5,SW,3.5,-,N/A,,Overcast,220,2012-12-26 00:16:00
3:36 PM,26.6,24.8,93,29.60,2.5,South,3.5,-,N/A,,Overcast,180,2012-12-26 00:36:00
3:56 PM,24.8,24.8,100,29.60,2.5,Calm,Calm,-,N/A,,Scattered Clouds,0,2012-12-26 00:56:00
4:16 PM,23.0,23.0,100,29.60,0.5,Calm,Calm,-,N/A,,Mostly Cloudy,0,2012-12-26 01:16:00
4:36 PM,21.2,19.4,93,29.61,1.5,Calm,Calm,-,N/A,,Clear,0,2012-12-26 01:36:00
4:56 PM,17.6,17.6,100,29.61,3.0,Calm,Calm,-,N/A,,Clear,0,2012-12-26 01:56:00
5:16 PM,21.2,21.2,100,29.61,3.0,Calm,Calm,-,N/A,,Clear,0,2012-12-26 02:16:00
5:36 PM,19.4,19.4,100,29.61,2.0,Calm,Calm,-,N/A,,Clear,0,2012-12-26 02:36:00
5:56 PM,15.8,12.2,86,29.62,1.2,Calm,Calm,-,N/A,,Mostly Cloudy,0,2012-12-26 02:56:00
6:16 PM,15.8,14.0,93,29.62,3.0,Calm,Calm,-,N/A,,Mostly Cloudy,0,2012-12-26 03:16:00
6:36 PM,14.0,12.2,93,29.62,4.0,Calm,Calm,-,N/A,,Overcast,0,2012-12-26 03:36:00
6:56 PM,15.8,12.2,86,29.63,4.0,Calm,Calm,-,N/A,,Overcast,0,2012-12-26 03:56:00
7:16 PM,15.8,12.2,86,29.62,4.0,Calm,Calm,-,N/A,,Mostly Cloudy,0,2012-12-26 04:16:00
7:36 PM,12.2,10.4,92,29.63,1.8,Calm,Calm,-,N/A,,Clear,0,2012-12-26 04:36:00
7:56 PM,12.2,8.6,85,29.63,3.0,Calm,Calm,-,N/A,,Partly Cloudy,0,2012-12-26 04:56:00
8:16 PM,10.4,6.8,85,29.63,4.0,Calm,Calm,-,N/A,,Scattered Clouds,0,2012-12-26 05:16:00
8:36 PM,10.4,6.8,85,29.63,4.0,Calm,Calm,-,N/A,,Partly Cloudy,0,2012-12-26 05:36:00
8:56 PM,8.6,5.0,85,29.64,4.0,Calm,Calm,-,N/A,,Mostly Cloudy,0,2012-12-26 05:56:00
9:16 PM,8.6,3.2,79,29.64,4.0,Calm,Calm,-,N/A,,Mostly Cloudy,0,2012-12-26 06:16:00
9:36 PM,8.6,5.0,85,29.64,4.0,Calm,Calm,-,N/A,,Clear,0,2012-12-26 06:36:00
9:56 PM,6.8,3.2,85,29.64,4.0,Calm,Calm,-,N/A,,Clear,0,2012-12-26 06:56:00
10:16 PM,6.8,3.2,85,29.64,4.0,Calm,Calm,-,N/A,,Scattered Clouds,0,2012-12-26 07:16:00
10:36 PM,5.0,1.4,85,29.64,0.5,Calm,Calm,-,N/A,,Overcast,0,2012-12-26 07:36:00
10:56 PM,3.2,1.4,92,29.64,4.0,Calm,Calm,-,N/A,,Mostly Cloudy,0,2012-12-26 07:56:00
11:16 PM,5.0,3.2,92,29.63,3.0,Calm,Calm,-,N/A,,Overcast,0,2012-12-26 08:16:00
11:36 PM,3.2,1.4,92,29.63,4.0,Calm,Calm,-,N/A,,Overcast,0,2012-12-26 08:36:00
11:56 PM,5.0,1.4,85,29.63,0.8,Calm,Calm,-,N/A,,Overcast,0,2012-12-26 08:56:00